DLH3ME EDLW-EDDC

Flight info

Callsign DLH3ME
Flight time N/A
Altitude 23000
Route NUDGO3Q/06 NUDGO Z858 BERDI/N0414F350 Z21 OSTRA DCT OSKAN OSKAN4B
Aircraft A20N/M-SDE2E3FGHIRWXY/LB1

Departure

Time 2026-05-01 13:11
Airport Dortmund Airport (EDLW)

Arrival

Time N/A
Airport Dresden Airport (EDDC)
Time Latitude Longitude Altitude Speed Heading
2026-05-01 13:07 51.51430 7.60595 417 ft 0 kts 240°
2026-05-01 13:08 51.51428 7.60591 417 ft 2 kts 241°
2026-05-01 13:09 51.51414 7.60550 425 ft 6 kts 241°
2026-05-01 13:09 51.51385 7.60465 423 ft 11 kts 241°
2026-05-01 13:09 51.51365 7.60340 426 ft 13 kts 290°
2026-05-01 13:09 51.51442 7.60243 423 ft 17 kts 349°
2026-05-01 13:10 51.51505 7.60299 416 ft 2 kts 58°
2026-05-01 13:10 51.51627 7.60655 415 ft 77 kts 62°
2026-05-01 13:10 51.52002 7.61724 418 ft 141 kts 63°
2026-05-01 13:10 51.52562 7.63255 716 ft 165 kts 65°
2026-05-01 13:11 51.53078 7.64802 1517 ft 151 kts 68°
2026-05-01 13:11 51.53578 7.66275 2318 ft 153 kts 67°
2026-05-01 13:11 51.54123 7.67868 3027 ft 172 kts 66°
2026-05-01 13:11 51.54744 7.69653 3658 ft 194 kts 64°
2026-05-01 13:12 51.55460 7.71641 4343 ft 218 kts 64°
2026-05-01 13:12 51.56194 7.74041 4520 ft 257 kts 78°
2026-05-01 13:12 51.56251 7.76901 4645 ft 258 kts 106°
2026-05-01 13:12 51.55599 7.79582 4861 ft 258 kts 118°
2026-05-01 13:13 51.54784 7.82151 5580 ft 257 kts 120°
2026-05-01 13:13 51.53965 7.84701 6798 ft 258 kts 119°
2026-05-01 13:13 51.53152 7.87303 7861 ft 263 kts 118°
2026-05-01 13:13 51.52265 7.89850 8938 ft 265 kts 126°
2026-05-01 13:14 51.51112 7.92189 9997 ft 269 kts 135°
2026-05-01 13:14 51.49783 7.94362 10889 ft 280 kts 135°
2026-05-01 13:14 51.48365 7.96701 11360 ft 304 kts 135°
2026-05-01 13:14 51.46834 7.99245 11824 ft 325 kts 134°
2026-05-01 13:15 51.45268 8.01858 12727 ft 329 kts 134°
2026-05-01 13:15 51.43674 8.04528 13675 ft 335 kts 132°
2026-05-01 13:15 51.42369 8.07661 14485 ft 342 kts 115°
2026-05-01 13:15 51.41703 8.11290 15390 ft 346 kts 99°
2026-05-01 13:16 51.41608 8.15233 16217 ft 351 kts 92°
2026-05-01 13:16 51.41596 8.19131 17024 ft 356 kts 92°
2026-05-01 13:16 51.41575 8.23125 17837 ft 359 kts 92°
2026-05-01 13:17 51.41460 8.35349 20008 ft 372 kts 92°
2026-05-01 13:17 51.41417 8.39488 20865 ft 371 kts 92°
2026-05-01 13:18 51.41322 8.47947 22051 ft 384 kts 92°
2026-05-01 13:18 51.41277 8.52193 22750 ft 388 kts 91°
2026-05-01 13:18 51.41228 8.56540 22882 ft 393 kts 91°
2026-05-01 13:18 51.41179 8.60927 22998 ft 391 kts 91°
2026-05-01 13:19 51.41128 8.65262 23117 ft 390 kts 91°
2026-05-01 13:19 51.41075 8.69626 23229 ft 394 kts 91°
2026-05-01 13:19 51.40906 8.78367 23338 ft 391 kts 98°
2026-05-01 13:20 51.40183 8.82579 23337 ft 395 kts 113°
2026-05-01 13:20 51.38767 8.86332 23339 ft 393 kts 128°